Location: Unspecified
(43.4680°N, 87.1740°E)
Time: 04:48:00
(UTC+00:00)

Cosmos 2297 Rocket - Pass Details

Date: 17 April 2021
Orbit: 838 x 845 km, 71.0° (Epoch: 16 May)

Event Time Altitude Azimuth Distance (km) Brightness Sun altitude
Exits shadow 16:55:52 18° 265° (W) 1,926 4.2 -33.2°
Maximum altitude 16:58:42 27° 308° (NW) 1,561 4.0 -33.4°
Drops below altitude 10° 17:03:28 10° 5° (N) 2,469 5.3 -33.7°
Sets 17:06:19 0° 18° (NNE) 3,408 6.0 -33.8°
